Probability
0 0 0 0 0 0 0 0 0 0 0 0 6 26 35 58 97 100 97 100 100 100 94 94 94 100 100 97 94 90 87 74 26 23 16 13 16 6 6 6 6 6 3 10
0 0 0 0 0 0 0 0 0 0 0 0 0 3 10 32 55 84 94 97 97 87 90 90 94 94 90 94 97 71 55 35 16 10 3 0 0 0 0 0 0 0 0 3
0 0 0 0 0 0 0 0 0 0 0 0 0 0 0 3 23 29 65 87 81 87 77 84 87 84 90 81 77 74 45 26 10 3 0 0 0 0 0 0 0 0 0 0
0 0 0 0 0 0 0 0 0 0 0 0 0 0 0 0 26 55 65 81 81 81 87 77 87 87 84 68 48 45 35 29 13 0 0 0 0 0 0 0 0 0 0 0
0 0 0 0 0 0 0 0 0 0 0 0 0 0 0 0 23 48 77 87 87 90 84 77 77 68 58 35 23 19 10 6 3 0 0 0 0 0 0 0 0 0 0 0
0 0 0 0 0 0 0 0 0 0 0 0 0 0 0 0 3 19 52 71 84 84 87 77 77 58 35 13 3 3 0 0 0 0 0 0 0 0 0 0 0 0 0 0
0 0 0 0 0 0 0 0 0 0 0 0 0 0 0 0 0 0 26 55 55 45 39 52 48 35 10 3 3 0 0 0 0 0 0 0 0 0 0 0 0 0 0 0
0 0 0 0 0 0 0 0 0 0 0 0 0 0 0 0 0 0 0 6 10 6 6 3 0 0 0 0 0 0 0 0 0 0 0 0 0 0 0 0 0 0 0 0
0 0 0 0 0 0 0 0 0 0 0 0 0 0 0 0 0 0 0 0 0 0 0 0 0 0 0 0 0 0 0 0 0 0 0 0 0 0 0 0 0 0 0 0
0 0 0 0 0 0 0 0 0 0 0 0 0 0 0 0 0 0 0 0 0 0 0 0 0 0 0 0 0 0 0 0 0 0 0 0 0 0 0 0 0 0 0 0
0 0 0 0 0 0 0 0 0 0 0 0 0 0 0 0 0 0 0 0 0 0 0 0 0 0 0 0 0 0 0 0 0 0 0 0 0 0 0 0 0 0 0 0
0 0 0 0 0 0 0 0 0 0 0 0 0 0 0 0 0 0 0 0 0 0 0 0 0 0 0 0 0 0 0 0 0 0 0 0 0 0 0 0 0 0 0 0
0 0 0 0 0 0 0 0 0 0 0 0 0 0 0 0 0 0 0 0 0 0 0 0 0 0 0 0 0 0 0 0 0 0 0 0 0 0 0 0 0 0 0 0
0 0 0 0 0 0 0 0 0 0 0 0 0 0 0 0 0 0 0 0 0 0 0 0 0 0 0 0 0 0 0 0 0 0 0 0 0 0 0 0 0 0 0 0
0 0 0 0 0 0 0 0 0 0 0 0 0 0 0 0 0 0 0 0 0 0 0 0 0 0 0 0 0 0 0 0 0 0 0 0 0 0 0 0 0 0 0 0
0 0 0 0 0 0 0 0 0 0 0 0 0 0 0 0 0 0 0 0 0 0 0 0 0 0 0 0 0 0 0 0 0 0 0 0 0 0 0 0 0 0 0 0
0 0 0 0 0 0 0 0 0 0 0 0 0 0 0 0 0 0 0 0 0 0 0 0 0 0 0 0 0 0 0 0 0 0 0 0 0 0 0 0 0 0 0 0
0 0 0 0 0 0 0 0 0 0 0 0 0 0 0 0 0 0 0 0 0 0 0 0 0 0 0 0 0 0 0 0 0 0 0 0 0 0 0 0 0 0 0 0
0 0 0 0 0 0 0 0 0 0 0 0 0 0 0 0 0 0 0 0 0 0 0 0 0 0 0 0 0 0 0 0 0 0 0 0 0 0 0 0 0 0 0 0
0 0 0 0 0 0 0 0 0 0 0 0 0 0 0 0 0 0 0 0 0 0 0 0 0 0 0 0 0 0 0 0 0 0 0 0 0 0 0 0 0 0 0 0
0 0 0 0 0 0 0 0 0 0 0 0 0 0 0 0 0 0 0 0 0 0 0 0 0 0 0 0 0 0 0 0 0 0 0 0 0 0 0 0 0 0 0 0
0 0 0 0 0 0 0 0 0 0 0 0 0 0 0 0 0 0 0 0 0 0 0 0 0 0 0 0 0 0 0 0 0 0 0 0 0 0 0 0 0 0 0 0
0 0 0 0 0 0 0 0 0 0 0 0 0 0 0 0 0 0 0 0 0 0 0 0 0 0 0 0 0 0 0 0 0 0 0 0 0 0 0 0 0 0 0 0
0 0 0 0 0 0 0 0 0 0 0 0 0 0 0 0 0 0 0 0 0 0 0 0 0 0 0 0 0 0 0 0 0 0 0 0 0 0 0 0 0 0 0 0
0 0 0 0 0 0 0 0 0 0 0 0 0 0 0 0 0 0 0 0 0 0 0 0 0 0 0 0 0 0 0 0 0 0 0 0 0 0 0 0 0 0 0 0
0 0 0 0 0 0 0 0 0 0 0 0 0 0 0 0 0 0 0 0 0 0 0 0 0 0 0 0 0 0 0 0 0 0 0 0 0 0 0 0 0 0 0 0
Height
5858 5860 5861 5863 5865 5867 5868 5869 5870 5871 5871 5872 5872 5873 5873 5873 5874 5874 5873 5873 5872 5871 5869 5868 5865 5862 5860 5857 5854 5852 5851 5849 5847 5845 5842 5840 5838 5835 5833 5830 5828 5825 5823 5821
5858 5859 5859 5860 5861 5862 5863 5864 5865 5865 5865 5866 5866 5866 5866 5866 5866 5867 5867 5866 5866 5865 5864 5861 5859 5856 5853 5850 5848 5846 5844 5842 5839 5837 5834 5832 5830 5827 5824 5821 5818 5816 5813 5812
5857 5859 5859 5859 5859 5860 5860 5860 5860 5860 5861 5861 5861 5861 5861 5860 5860 5860 5860 5860 5859 5858 5857 5855 5852 5849 5846 5844 5841 5839 5837 5835 5832 5830 5828 5825 5822 5819 5816 5813 5809 5806 5803 5801
5857 5857 5858 5858 5857 5857 5857 5857 5857 5856 5857 5857 5857 5856 5857 5855 5855 5854 5853 5853 5853 5852 5851 5849 5846 5844 5841 5839 5836 5833 5831 5829 5827 5824 5822 5819 5816 5813 5809 5805 5801 5796 5792 5790
5855 5855 5855 5855 5855 5854 5854 5853 5852 5852 5851 5851 5851 5850 5852 5852 5851 5850 5849 5848 5847 5847 5845 5843 5841 5839 5836 5833 5831 5828 5826 5824 5821 5819 5816 5813 5810 5806 5802 5798 5793 5788 5783 5779
5853 5853 5853 5852 5852 5852 5851 5850 5849 5847 5847 5846 5845 5845 5846 5845 5845 5845 5844 5843 5842 5841 5839 5838 5836 5834 5831 5828 5825 5823 5821 5819 5816 5813 5810 5807 5804 5800 5796 5792 5787 5781 5775 5770
5852 5852 5851 5851 5850 5850 5849 5848 5846 5845 5844 5843 5842 5841 5842 5841 5840 5840 5839 5838 5837 5835 5834 5832 5830 5828 5825 5822 5819 5817 5815 5813 5810 5807 5804 5800 5796 5792 5789 5784 5779 5774 5768 5763
5852 5852 5850 5849 5848 5847 5846 5845 5845 5843 5841 5840 5839 5838 5839 5837 5836 5835 5834 5832 5831 5829 5828 5826 5824 5821 5818 5815 5813 5810 5807 5804 5801 5798 5795 5791 5788 5784 5780 5776 5772 5767 5761 5755
5851 5851 5849 5846 5845 5844 5843 5842 5841 5839 5838 5837 5836 5835 5834 5831 5830 5829 5827 5826 5824 5823 5821 5818 5816 5813 5810 5806 5803 5800 5797 5794 5791 5788 5785 5782 5779 5775 5772 5768 5763 5759 5753 5748
5849 5848 5847 5845 5843 5842 5840 5839 5837 5836 5833 5832 5832 5830 5828 5827 5825 5823 5820 5818 5816 5814 5812 5809 5806 5803 5800 5796 5793 5790 5787 5784 5782 5779 5776 5773 5770 5766 5763 5759 5755 5751 5746 5741
5847 5846 5845 5842 5841 5839 5837 5836 5834 5832 5830 5828 5826 5827 5824 5822 5819 5816 5813 5811 5808 5805 5802 5799 5796 5793 5790 5786 5783 5780 5777 5774 5772 5769 5767 5764 5760 5757 5754 5750 5747 5743 5738 5733
5845 5844 5841 5839 5838 5836 5834 5832 5830 5828 5826 5823 5821 5820 5817 5815 5812 5809 5806 5802 5799 5795 5792 5788 5785 5782 5779 5775 5772 5769 5766 5763 5760 5758 5756 5753 5750 5747 5744 5741 5738 5735 5731 5726
5844 5842 5840 5837 5837 5834 5831 5828 5825 5822 5820 5818 5815 5813 5808 5805 5802 5799 5796 5792 5788 5785 5781 5777 5774 5770 5767 5763 5760 5757 5753 5750 5748 5745 5743 5741 5739 5736 5734 5731 5728 5726 5723 5719
5843 5841 5839 5836 5832 5829 5826 5824 5820 5817 5814 5811 5809 5805 5800 5796 5792 5789 5785 5781 5777 5773 5769 5765 5761 5756 5753 5749 5746 5743 5740 5737 5734 5732 5730 5729 5727 5725 5723 5721 5719 5717 5714 5711
5841 5839 5835 5832 5828 5825 5822 5820 5817 5813 5809 5806 5802 5797 5793 5788 5784 5779 5774 5769 5765 5760 5755 5751 5746 5742 5738 5734 5731 5728 5725 5722 5719 5717 5716 5715 5714 5712 5711 5710 5709 5707 5705 5703
5837 5835 5831 5828 5824 5821 5817 5814 5811 5808 5804 5799 5794 5789 5784 5779 5774 5769 5763 5757 5751 5746 5740 5735 5730 5725 5721 5718 5715 5711 5708 5706 5703 5701 5700 5699 5698 5698 5698 5697 5697 5696 5695 5693
5833 5830 5827 5824 5820 5816 5813 5809 5805 5800 5796 5791 5785 5780 5774 5768 5762 5755 5749 5742 5736 5730 5724 5718 5712 5706 5702 5697 5694 5692 5690 5687 5685 5683 5681 5680 5680 5681 5682 5683 5684 5684 5684 5683
5829 5825 5822 5818 5815 5811 5809 5802 5797 5792 5786 5781 5774 5768 5762 5755 5750 5743 5734 5726 5720 5712 5705 5698 5692 5685 5680 5675 5671 5667 5666 5663 5661 5660 5659 5659 5659 5661 5663 5666 5668 5669 5671 5671
5824 5820 5816 5812 5808 5803 5799 5793 5788 5782 5776 5770 5763 5756 5749 5740 5734 5728 5716 5707 5698 5689 5680 5672 5665 5658 5653 5647 5642 5639 5637 5635 5633 5632 5632 5633 5634 5637 5641 5645 5650 5653 5656 5658
5820 5816 5811 5806 5801 5796 5793 5786 5779 5773 5765 5758 5750 5741 5732 5722 5713 5708 5695 5684 5673 5663 5654 5645 5637 5630 5624 5618 5611 5608 5607 5605 5603 5603 5604 5605 5607 5611 5616 5623 5630 5636 5640 5643
5817 5812 5806 5801 5796 5790 5785 5778 5771 5763 5756 5745 5733 5722 5711 5700 5688 5678 5667 5655 5644 5634 5625 5616 5609 5604 5599 5592 5586 5582 5581 5579 5578 5578 5580 5582 5584 5588 5593 5600 5609 5617 5623 5628
5812 5807 5802 5796 5791 5786 5777 5769 5761 5751 5739 5727 5715 5702 5689 5677 5664 5651 5639 5628 5617 5608 5600 5592 5585 5582 5577 5572 5566 5563 5561 5560 5560 5561 5563 5564 5566 5569 5572 5579 5588 5598 5606 5613
5806 5801 5795 5790 5785 5775 5766 5756 5746 5734 5722 5709 5695 5681 5665 5650 5638 5626 5615 5606 5598 5590 5583 5577 5571 5567 5563 5558 5553 5549 5548 5547 5548 5549 5550 5551 5552 5554 5557 5561 5569 5579 5588 5598
5801 5795 5789 5782 5775 5766 5755 5744 5732 5719 5704 5690 5673 5656 5641 5627 5617 5608 5599 5591 5583 5577 5570 5564 5558 5553 5549 5545 5541 5538 5536 5535 5535 5536 5537 5538 5540 5541 5543 5547 5553 5562 5572 5584
5795 5788 5781 5774 5765 5756 5745 5731 5718 5703 5686 5669 5653 5638 5623 5612 5604 5595 5588 5581 5573 5566 5559 5552 5545 5539 5534 5529 5526 5523 5521 5521 5521 5522 5524 5525 5526 5528 5531 5533 5538 5547 5557 5570
5789 5782 5774 5765 5754 5743 5731 5717 5701 5685 5668 5650 5635 5624 5614 5603 5594 5586 5579 5571 5562 5554 5546 5538 5530 5523 5517 5511 5508 5505 5504 5504 5505 5507 5509 5511 5513 5516 5518 5519 5525 5535 5547 5559
Wind_Speed
17 18 20 22 24 27 30 33 35 37 38 39 39 38 37 36 35 34 32 30 28 28 29 31 32 34 35 35 34 33 31 30 30 30 30 31 32 33 35 36 37 38 38 39
11 13 15 18 21 24 27 30 32 34 34 34 35 35 35 34 33 31 30 30 30 31 32 33 34 34 34 34 33 33 32 30 30 30 31 32 33 35 36 37 38 39 39 39
9 10 12 14 17 20 23 26 29 30 31 31 32 32 32 33 32 32 32 32 33 34 34 33 33 33 31 32 32 32 32 31 31 31 31 31 32 33 35 36 38 40 41 41
10 12 13 15 17 19 21 23 25 27 27 28 30 32 31 32 34 35 36 36 37 36 34 33 30 28 29 31 31 32 32 30 29 28 28 28 29 30 32 34 36 37 39 40
11 12 14 16 17 18 20 21 23 24 25 26 29 32 32 33 36 37 38 37 34 32 29 26 25 26 28 30 31 31 29 27 25 24 23 23 25 27 29 32 34 35 37 38
9 9 10 11 11 12 14 16 18 18 18 20 22 23 24 26 28 29 29 29 28 27 25 23 23 25 28 29 30 28 25 23 22 21 21 22 24 26 28 30 33 34 35 37
5 6 7 8 9 11 12 13 14 14 14 15 17 18 18 20 21 22 22 23 24 24 24 24 24 25 26 27 27 25 24 23 23 23 24 25 26 28 29 31 33 35 35 35
4 5 7 9 11 12 13 14 15 15 14 14 17 18 17 19 20 21 22 23 24 24 24 23 23 23 25 26 26 25 24 25 26 27 29 30 31 32 33 33 34 36 36 35
6 5 10 12 12 13 13 13 14 15 15 15 16 17 18 20 21 21 22 22 22 22 22 21 22 24 25 27 28 29 29 30 32 33 34 36 37 37 37 36 36 37 37 36
8 9 10 11 12 12 12 13 14 16 18 18 17 19 21 21 22 24 25 24 24 24 24 25 26 28 30 32 33 34 35 35 36 37 38 39 40 41 41 40 39 38 37 36
11 11 12 13 12 13 14 14 15 17 19 21 20 21 22 23 25 28 29 29 29 30 30 31 32 33 35 37 39 40 40 40 41 41 41 41 42 42 42 42 40 39 37 36
13 14 15 16 15 15 16 17 19 21 22 23 25 28 25 26 28 30 32 33 34 35 36 37 38 40 41 43 44 45 46 46 45 45 44 44 44 44 43 43 41 39 37 36
14 15 15 17 19 19 19 20 22 24 26 26 28 32 32 32 33 34 35 37 38 40 41 43 44 46 47 48 49 49 50 51 50 50 48 48 47 45 44 43 41 39 37 35
15 16 17 19 21 22 22 23 25 28 29 31 31 34 35 37 38 39 40 42 44 45 47 48 50 52 53 53 54 54 54 55 54 54 53 52 50 49 46 44 42 40 38 35
17 18 19 20 22 23 23 23 24 27 30 32 33 35 36 38 40 43 45 47 49 51 52 54 55 56 57 58 58 58 58 58 58 58 58 56 54 53 50 47 44 42 39 35
21 21 21 21 23 24 25 26 27 29 32 34 36 39 40 42 44 46 48 51 53 55 58 60 61 62 63 64 64 63 62 62 63 63 62 61 59 57 55 52 48 44 40 36
23 23 24 24 25 27 28 30 31 33 35 37 40 42 43 45 47 49 52 55 58 60 62 64 65 66 66 67 68 70 70 70 70 69 68 66 64 62 59 55 50 46 42 38
25 26 27 28 29 30 32 33 35 38 40 42 44 46 47 49 51 54 58 61 64 67 69 72 74 76 78 80 81 81 79 79 78 76 74 72 70 67 63 57 50 46 42 38
27 28 29 30 32 34 36 37 39 42 45 47 49 51 54 58 60 61 66 70 73 76 79 81 83 85 86 87 87 86 85 84 82 80 77 74 71 67 63 56 49 46 43 40
27 29 30 32 33 35 36 38 41 45 49 51 55 59 62 66 69 71 74 77 79 81 82 84 84 85 85 85 85 85 82 79 75 71 67 63 61 59 57 54 49 47 44 41
27 28 29 30 32 35 37 40 45 49 53 58 63 67 71 75 78 80 82 83 83 81 79 77 74 72 71 70 69 68 65 60 55 52 49 46 46 47 48 50 49 48 45 43
27 28 29 31 34 37 42 46 50 55 61 66 71 75 79 82 83 83 81 77 72 67 63 60 58 54 52 51 50 48 44 40 38 35 33 33 33 34 38 44 48 48 46 44
29 30 33 36 39 44 49 54 59 64 69 74 78 81 83 83 79 73 66 60 55 51 49 47 46 44 42 42 42 40 37 35 32 31 30 30 30 30 31 38 47 50 46 44
31 34 37 41 45 49 54 60 65 70 75 79 81 80 77 71 63 56 51 47 44 42 43 43 43 42 41 40 39 39 38 37 35 34 33 32 31 30 30 34 45 50 47 44
36 39 43 47 51 55 59 65 71 76 78 79 76 70 62 55 50 46 44 43 43 44 45 45 46 47 46 45 43 42 41 40 39 38 35 33 31 30 30 33 44 50 45 42
39 43 47 51 56 61 65 70 75 78 77 73 65 55 47 46 45 44 45 46 47 48 50 51 53 53 51 50 47 44 43 42 40 38 35 33 32 30 31 33 42 49 46 42
Wind_Direction
219 222 227 231 234 238 242 246 249 253 256 259 262 263 264 264 263 265 267 270 273 279 287 293 296 298 298 298 297 296 296 297 299 299 300 300 301 300 297 294 291 288 285 283
222 226 229 233 237 239 243 246 248 250 252 254 256 259 261 262 262 264 265 268 275 282 290 294 297 298 298 297 296 297 299 302 304 306 306 306 305 304 301 298 295 291 287 283
243 246 248 248 249 247 247 249 250 252 254 255 257 258 261 264 267 270 273 277 282 287 292 294 295 295 293 294 297 300 303 307 309 309 309 309 308 308 306 304 301 296 292 287
268 267 260 259 260 261 259 259 259 260 260 260 261 260 259 264 269 273 276 280 284 287 289 289 287 284 287 292 296 301 304 305 305 306 308 310 311 313 313 311 307 302 297 291
275 269 264 262 262 264 266 269 269 270 268 266 263 264 264 262 263 268 273 277 280 280 280 278 277 281 287 291 293 296 296 296 298 302 308 313 316 319 320 320 317 311 305 298
278 276 274 272 270 271 275 279 280 280 278 275 274 274 273 269 269 270 273 274 274 274 273 273 278 283 285 286 287 287 287 288 292 298 305 311 316 320 323 324 324 320 313 305
315 301 294 283 279 282 287 290 290 290 288 282 281 282 281 278 277 275 273 273 273 273 274 277 278 279 277 277 278 279 281 285 291 297 304 308 312 316 319 322 325 325 320 313
308 298 295 285 281 283 285 289 290 291 288 283 282 283 285 280 277 275 275 276 276 276 276 274 272 271 271 272 276 280 286 292 299 304 308 311 313 315 317 319 322 325 324 319
324 306 300 297 296 294 293 290 292 292 290 285 280 280 279 280 281 281 280 281 280 278 276 274 274 275 276 280 285 291 297 302 306 309 310 311 312 313 315 317 319 322 323 322
335 321 306 310 310 307 301 297 294 295 296 291 283 280 279 281 287 290 291 291 290 288 286 285 285 286 288 291 293 297 300 303 305 306 308 308 309 311 312 314 315 318 320 321
331 323 319 318 317 308 305 303 299 297 298 299 297 291 291 290 290 291 292 292 292 292 291 291 291 291 293 294 296 298 299 301 302 303 305 305 306 308 309 311 312 314 315 317
334 328 322 322 322 314 308 306 303 301 302 301 303 300 298 295 292 291 290 290 290 290 290 291 291 292 292 293 294 296 297 298 299 300 302 303 304 305 306 307 308 309 311 313
338 330 322 316 317 316 312 309 306 306 306 305 305 302 300 298 295 292 291 289 289 289 289 290 290 290 290 291 292 294 295 296 297 297 299 300 301 302 303 305 305 306 307 309
336 331 323 317 312 310 308 306 304 303 303 302 301 298 298 297 295 293 291 290 289 289 289 288 288 288 288 288 289 290 291 292 293 294 296 297 297 298 300 301 302 303 303 304
327 325 321 316 311 307 302 299 296 295 296 297 297 296 295 293 292 291 290 289 288 287 286 285 285 284 284 284 285 285 287 288 289 290 292 293 293 294 296 297 298 299 298 298
324 322 320 316 312 309 306 304 301 299 297 296 296 296 296 294 292 290 288 287 286 285 283 281 281 280 281 281 280 280 281 283 285 286 286 288 289 289 290 291 292 292 292 291
323 321 320 317 313 309 307 306 303 301 300 300 300 300 299 297 295 293 290 288 286 285 283 279 277 277 277 277 279 280 280 280 281 282 282 282 283 284 284 285 284 284 284 283
325 323 322 319 316 313 312 310 310 310 310 308 307 305 303 299 296 293 290 288 287 285 283 282 281 281 280 281 281 280 280 279 279 279 279 278 278 278 278 277 276 274 274 274
325 322 320 320 318 318 318 318 318 316 314 313 312 308 304 300 297 292 289 288 287 286 285 285 284 284 284 284 283 282 281 280 280 279 278 276 274 273 271 268 265 263 264 264
324 322 321 321 321 321 322 321 320 317 313 314 310 306 302 300 297 295 292 290 288 288 287 287 287 286 286 286 285 284 283 282 281 279 277 275 272 268 264 259 253 252 253 255
323 323 324 326 326 324 324 322 319 314 313 312 310 308 306 303 301 299 296 295 294 294 293 292 291 291 290 290 289 288 286 283 280 277 273 270 268 265 258 250 242 240 243 245
330 330 331 332 330 326 325 322 319 317 316 314 312 309 307 304 302 301 301 301 300 300 299 298 297 297 296 294 293 292 289 283 277 273 269 266 266 265 256 243 232 229 233 237
336 336 335 333 330 327 325 323 321 320 317 315 313 310 308 307 307 308 308 308 306 305 303 302 301 301 300 297 294 291 287 283 278 275 272 268 268 267 261 242 226 222 225 228
336 334 332 330 329 328 325 324 322 320 318 316 313 312 312 313 314 315 314 313 312 310 307 305 303 302 300 297 292 288 284 281 277 276 273 271 270 267 266 247 226 219 218 221
334 333 331 330 330 329 327 325 323 321 319 317 316 317 317 318 319 319 319 317 314 311 308 306 304 302 299 295 291 286 282 279 276 275 273 270 268 264 265 252 228 218 211 211
332 332 332 332 331 330 328 326 324 322 321 321 320 321 321 321 321 320 319 317 315 312 309 306 304 302 299 295 290 284 281 277 274 271 268 265 264 262 263 251 228 215 207 206